sat.trackr.live / text

‹ back to catalog

QIANFAN-194

NORAD 69412 · 2026-125M

PAYLOAD ACTIVE UNKNOWN

§ Identity

Operator
Country
PRC
Launch date
2026-06-05
Launch site
WSC
Launch vehicle
Mass (kg)
RCS (m²)

External: N2YO · Heavens-Above · Gunter

§ Orbital elements

Epoch: 2026-09-20T03:06:56.426400Z

Period
106.59 min
Inclination
88.9899°
Eccentricity
0.0002071
Mean motion
13.51026119 rev/d
Perigee alt
1,066.9 km
Apogee alt
1,070.0 km
Semi-major
7,446.6 km
B*
3.6595e-5
RAAN
270.3474°
Arg perigee
102.0972°
Mean anomaly
258.0411°
Rev number
1,476

§ Raw data

QIANFAN-1941 69412U 26125M   26263.12981975  .00000036  00000+0  36595-4 0  99992 69412  88.9899 270.3474 0002071 102.0972 258.0411 13.51026119 14761

JSON: /api/v1/satellites/69412 · /tle

For live sub-satellite position, see the globe view (requires WebGL).

§ Visibility from observer

Set your observer location to see the next 7 days of passes ≥ 10°. The values pass through the URL so the page stays shareable.

No JS? Fill the form by hand. The geolocation button needs JavaScript.